Powrót do katalogu

THOR ABLESTAR DEB

AktywnyLEO
NORAD 3932·DEBRIS·🇺🇸 United States

Wystrzelony Jun 29, 1961 z Cape Canaveral Space Force Station

Loading…

Następne Przeloty (najbliższe 24 godziny)

TLE

ŚwieżeSource: Space-Track

Epoka: Sep 14, 2026, 07:41 UTC

1 03932U 61015JG  26257.32016528  .00000210  00000-0  52107-3 0  9990
2 03932  65.7974 225.2408 0273309  74.4658 356.9741 13.26049185163620

Śledź THOR ABLESTAR DEB w czasie rzeczywistym z AllMySat

Download on the App Store